K7OLI-13 Weather Reports


time (UTC)temp
C
wind
direction
speed
KPH
gust
KPH
rain 1hr
cm
rain 24hr
cm
rain mn
cm
humidity
%
barometer
mb
20260502224023 18 168 3.2 4.8 0.00 0.03 0.03 71 1010.1
20260502223031 18 331 4.8 6.4 0.00 0.03 0.03 71 1010.1
20260502222021 17 70 6.4 9.7 0.00 0.03 0.03 72 1010.1
20260502221029 17 320 4.8 8.0 0.00 0.03 0.03 73 1010.1
20260502220029 17 41 8.0 11.3 0.00 0.03 0.03 73 1010.1
20260502215041 17 34 9.7 11.3 0.00 0.03 0.03 72 1010.1
20260502214053 17 270 6.4 8.0 0.00 0.03 0.03 72 1011.1
20260502213043 18 344 9.7 11.3 0.00 0.03 0.03 70 1011.1
20260502212031 18 350 6.4 9.7 0.00 0.03 0.03 69 1011.1
20260502211021 18 312 9.7 11.3 0.00 0.03 0.03 68 1011.1
20260502210030 18 16 9.7 16.1 0.00 0.03 0.03 69 1011.1
20260502205021 18 48 11.3 16.1 0.00 0.03 0.03 69 1011.1
20260502204026 18 342 8.0 12.9 0.00 0.03 0.03 69 1011.1
20260502203033 17 339 8.0 9.7 0.00 0.03 0.03 70 1011.1
20260502202023 17 344 9.7 12.9 0.00 0.03 0.03 70 1012.1
20260502201031 16 7 8.0 11.3 0.00 0.03 0.03 72 1012.1
20260502200041 16 350 4.8 8.0 0.00 0.03 0.03 72 1012.1
20260502195021 16 288 4.8 8.0 0.00 0.03 0.03 70 1012.1
20260502194036 17 258 8.0 11.3 0.00 0.03 0.03 69 1012.1
20260502193025 16 288 4.8 12.9 0.00 0.03 0.03 71 1012.1
20260502192053 16 294 6.4 11.3 0.00 0.03 0.03 73 1012.1
20260502191103 16 268 6.4 9.7 0.00 0.03 0.03 73 1012.1
20260502190032 15 271 6.4 9.7 0.00 0.03 0.03 75 1012.1
20260502185022 15 355 4.8 8.0 0.00 0.03 0.03 79 1013.1
20260502184028 13 321 6.4 9.7 0.03 0.03 0.03 79 1013.1
20260502183036 14 24 8.0 12.9 0.03 0.03 0.03 81 1013.1
20260502182029 13 23 8.0 12.9 0.03 0.03 0.03 81 1013.1
20260502181033 12 344 8.0 11.3 0.03 0.03 0.03 85 1012.3
20260502164030 13 291 3.2 8.0 0.00 0.00 0.00 78 1013.1
20260502163021 13 224 4.8 8.0 0.00 0.00 0.00 79 1013.1
20260502162029 12 260 6.4 8.0 0.00 0.00 0.00 82 1013.1
20260502161035 12 241 6.4 9.7 0.00 0.00 0.00 83 1013.1
20260502152021 10 257 4.8 8.0 0.00 0.00 0.00 89 1013.1
20260502151210 10 266 4.8 6.4 0.00 0.00 0.00 89 1013.1
20260502123025 9 237 6.4 9.7 0.00 0.00 0.00 91 1013.1
20260502122033 9 235 6.4 9.7 0.00 0.00 0.00 91 1012.1
20260502121022 9 226 6.4 11.3 0.00 0.00 0.00 91 1012.1
20260502115021 9 215 4.8 6.4 0.00 0.00 0.00 92 1012.1
20260502114021 9 230 6.4 8.0 0.00 0.00 0.00 92 1012.1
20260502113035 9 222 6.4 8.0 0.00 0.00 0.00 92 1012.1
20260502112025 9 194 4.8 6.4 0.00 0.00 0.00 92 1012.2
20260502111033 9 175 3.2 4.8 0.00 0.00 0.00 93 1012.2
20260502110022 8 265 1.6 3.2 0.00 0.00 0.00 93 1012.2
20260502105030 9 0.0 0.0 0.00 0.00 0.00 92 1012.2
20260502104024 9 250 1.6 4.8 0.00 0.00 0.00 91 1012.2
20260502103028 10 224 3.2 4.8 0.00 0.00 0.00 90 1012.2
20260502102037 10 204 1.6 3.2 0.00 0.00 0.00 90 1012.2
20260502101025 10 203 3.2 6.4 0.00 0.00 0.00 90 1012.2
20260502091037 10 232 6.4 9.7 0.00 0.00 0.00 89 1013.0
20260502071021 11 214 9.7 14.5 0.00 0.00 0.00 86 1013.1
20260502070029 11 236 12.9 19.3 0.00 0.00 0.00 86 1013.1
20260502065035 11 226 11.3 16.1 0.00 0.00 0.00 86 1013.1
20260502064025 11 223 12.9 17.7 0.00 0.00 0.00 86 1013.1
20260502063033 11 207 9.7 11.3 0.00 0.00 0.00 86 1013.1
20260502062022 11 232 9.7 12.9 0.00 0.00 0.00 86 1013.1
20260502061049 11 218 12.9 16.1 0.00 0.00 0.00 86 1013.1
20260502060021 11 223 8.0 11.3 0.00 0.00 0.00 86 1013.1
20260502055026 11 213 11.3 16.1 0.00 0.00 0.00 85 1013.1
20260502054025 11 213 11.3 16.1 0.00 0.00 0.00 85 1013.1
20260502053024 11 208 12.9 17.7 0.00 0.00 0.00 85 1013.1
20260502052032 11 218 12.9 16.1 0.00 0.00 0.00 85 1013.1
20260502051040 11 217 12.9 17.7 0.00 0.00 0.00 85 1013.1
20260502050029 11 229 12.9 16.1 0.00 0.00 0.00 85 1013.1
20260502045117 11 233 11.3 14.5 0.00 0.00 0.00 85 1013.1
20260502044026 12 220 11.3 14.5 0.00 0.00 0.00 84 1013.1
20260502043054 12 206 12.9 19.3 0.00 0.00 0.00 84 1013.1
20260502042024 12 215 9.7 17.7 0.00 0.00 0.00 83 1013.1
20260502041031 12 213 14.5 17.7 0.00 0.00 0.00 83 1012.3
20260502040021 12 220 16.1 20.9 0.00 0.00 0.00 83 1012.1
20260502035028 12 208 16.1 20.9 0.00 0.00 0.00 83 1012.1
20260502034027 12 219 16.1 20.9 0.00 0.00 0.00 82 1012.1
20260502033045 12 207 16.1 20.9 0.00 0.00 0.00 82 1012.1
20260502032054 12 202 17.7 20.9 0.00 0.00 0.00 82 1012.1
20260502031023 13 217 14.5 20.9 0.00 0.00 0.00 81 1012.1
20260502030051 13 232 12.9 16.1 0.00 0.00 0.00 80 1012.1
20260502025021 13 233 12.9 17.7 0.00 0.00 0.00 78 1012.1
20260502024028 14 239 17.7 25.7 0.00 0.00 0.00 77 1011.3
20260502023037 14 206 19.3 27.4 0.00 0.00 0.00 76 1011.1
20260502022024 15 224 19.3 29.0 0.00 0.00 0.00 75 1011.1
20260502021052 15 221 20.9 29.0 0.00 0.00 0.00 74 1011.1
20260502020041 15 223 19.3 24.1 0.00 0.00 0.00 73 1011.1
20260502015029 16 213 19.3 27.4 0.00 0.00 0.00 72 1011.1
20260502014029 16 212 17.7 25.7 0.00 0.00 0.00 70 1011.1
20260502013021 17 221 16.1 19.3 0.00 0.00 0.00 69 1011.1
20260502012033 17 218 17.7 24.1 0.00 0.00 0.00 68 1011.1
20260502011022 17 230 20.9 27.4 0.00 0.00 0.00 67 1011.1
20260502010030 18 224 14.5 20.9 0.00 0.00 0.00 66 1011.1
20260502005022 18 233 16.1 25.7 0.00 0.00 0.00 66 1011.1
20260502004031 18 229 19.3 20.9 0.00 0.00 0.00 65 1011.1
20260502003021 19 224 14.5 19.3 0.00 0.00 0.00 63 1011.1
20260502002024 20 231 12.9 19.3 0.00 0.00 0.00 62 1011.1
20260502001032 20 233 16.1 24.1 0.00 0.00 0.00 60 1011.2
20260502000022 21 241 17.7 24.1 0.00 0.00 0.00 59 1011.2
20260501235030 21 229 17.7 24.1 0.00 0.00 0.00 57 1011.2
20260501234021 22 240 16.1 24.1 0.00 0.00 0.00 57 1011.2
20260501233021 22 238 14.5 20.9 0.00 0.00 0.00 54 1011.2
20260501232034 22 223 12.9 16.1 0.00 0.00 0.00 56 1011.2
20260501231023 22 231 19.3 24.1 0.00 0.00 0.00 54 1011.2
20260501230031 23 237 12.9 19.3 0.00 0.00 0.00 53 1011.2
20260501225021 23 203 6.4 11.3 0.00 0.00 0.00 53 1012.2